Weather History for CYWG - November, 2013

Change the Weather History Date:

Monday, November 4, 2013

  Actual Average Record
Temperature  
Mean Temperature 39 °F -  
Max Temperature 48 °F - - ()
Min Temperature 30 °F - - ()
Degree Days  
Heating Degree Days 26    
Moisture  
Dew Point 28 °F    
Average Humidity 66    
Maximum Humidity 76    
Minimum Humidity 54    
Precipitation  
Precipitation 0.00 in - - ()
Sea Level Pressure  
Sea Level Pressure 29.71 in    
Wind  
Wind Speed 14 mph ()    
Max Wind Speed 21 mph    
Max Gust Speed 30 mph    
Visibility 14.8 miles    
Events Rain , Snow    
T = Trace of Precipitation, MM = Missing Value Source: Averaged Metar Reports

Daily Weather History Graph

Daily Weather History Graph

Search for Another Location

Airport or City:

Trip Planner

Search our weather history database for the weather conditions in past years. The results will help you decide how hot, cold, wet, or windy it might be!

Date:

Astronomy

Nov. 04, 2013 Rise Set
Actual Time 7:23 AM CST 5:00 PM CST
Civil Twilight 6:49 AM CST 5:34 PM CST
Nautical Twilight 6:11 AM CST 6:13 PM CST
Astronomical Twilight 5:33 AM CST 6:50 PM CST
Moon 8:42 AM CST (11/4) 5:59 PM CST (11/4)
Length of Visible Light 10h 45m
Length of Day
9h 36m
New Moon, 2% of the Moon is Illuminated
Nov 4
New Moon
Nov 9
First Quarter
Nov 17
Full
Nov 25
Last Quarter
Dec 2
New

Hourly Weather History & Observations

Time (CST) Temp. Windchill Dew Point Humidity Pressure Visibility Wind Dir Wind Speed Gust Speed Precip Events Conditions
12:00 AM 48.2 °F - 32.0 °F 54% 29.64 in 15.0 mi SSE 17.3 mph 25.3 mph N/A   Overcast
1:00 AM 46.4 °F 39.8 °F 32.0 °F 57% 29.63 in 15.0 mi SSE 16.1 mph - N/A   Mostly Cloudy
2:00 AM 46.4 °F 39.5 °F 32.0 °F 57% 29.62 in 15.0 mi SSE 17.3 mph 24.2 mph N/A   Overcast
3:00 AM 46.4 °F 39.5 °F 32.0 °F 57% 29.62 in 15.0 mi South 17.3 mph - N/A   Overcast
4:00 AM 46.4 °F 40.4 °F 33.8 °F 62% 29.63 in 15.0 mi South 13.8 mph 19.6 mph N/A   Overcast
4:43 AM 44.6 °F 37.4 °F 33.8 °F 66% 29.63 in 15.0 mi South 16.1 mph - N/A Rain Light Rain
5:00 AM 42.8 °F 36.6 °F 35.6 °F 76% 29.64 in 15.0 mi South 11.5 mph - N/A   Mostly Cloudy
6:00 AM 41.0 °F 33.1 °F 32.0 °F 70% 29.64 in 15.0 mi SW 15.0 mph - N/A   Mostly Cloudy
7:00 AM 37.4 °F 30.3 °F 28.4 °F 70% 29.65 in 15.0 mi SW 10.4 mph - N/A   Overcast
7:37 AM 35.6 °F 28.6 °F 28.4 °F 75% 29.66 in 15.0 mi WSW 9.2 mph - N/A   Mostly Cloudy
8:00 AM 37.4 °F 30.8 °F 28.4 °F 70% 29.66 in 15.0 mi SSW 9.2 mph - N/A   Mostly Cloudy
9:00 AM 37.4 °F 29.8 °F 28.4 °F 70% 29.67 in 15.0 mi SW 11.5 mph - N/A   Mostly Cloudy
10:00 AM 39.2 °F 30.8 °F 28.4 °F 65% 29.68 in 15.0 mi WSW 15.0 mph 21.9 mph N/A   Mostly Cloudy
11:00 AM 39.2 °F 29.8 °F 30.2 °F 70% 29.68 in 15.0 mi WSW 18.4 mph 25.3 mph N/A   Overcast
12:00 PM 39.2 °F 30.8 °F 28.4 °F 65% 29.69 in 15.0 mi SW 15.0 mph 20.7 mph N/A   Overcast
1:00 PM 39.2 °F 30.2 °F 26.6 °F 61% 29.69 in 15.0 mi WSW 17.3 mph - N/A   Overcast
2:00 PM 37.4 °F 27.2 °F 26.6 °F 65% 29.69 in 15.0 mi WSW 19.6 mph - N/A   Overcast
3:00 PM 37.4 °F 26.9 °F 24.8 °F 60% 29.70 in 15.0 mi SW 20.7 mph - N/A   Overcast
4:00 PM 37.4 °F 28.2 °F 24.8 °F 60% 29.72 in 15.0 mi WSW 16.1 mph 25.3 mph N/A   Overcast
4:27 PM 35.6 °F 25.2 °F 24.8 °F 65% 29.73 in 15.0 mi WSW 18.4 mph 25.3 mph N/A   Overcast
4:45 PM 35.6 °F 26.2 °F 24.8 °F 65% 29.73 in 10.0 mi WSW 15.0 mph 24.2 mph N/A Snow Light Snow
5:00 PM 33.8 °F 22.2 °F 26.6 °F 75% 29.75 in 15.0 mi WSW 20.7 mph 27.6 mph N/A Snow Light Snow
6:00 PM 33.8 °F 22.8 °F 26.6 °F 75% 29.77 in 15.0 mi WSW 18.4 mph 27.6 mph N/A   Overcast
7:00 PM 33.8 °F 23.9 °F 24.8 °F 70% 29.79 in 15.0 mi WSW 15.0 mph 25.3 mph N/A Snow Light Snow
7:21 PM 33.8 °F 22.2 °F 24.8 °F 70% 29.80 in 15.0 mi West 20.7 mph 29.9 mph N/A   Overcast
8:00 PM 33.8 °F 22.8 °F 23.0 °F 65% 29.81 in 15.0 mi West 18.4 mph - N/A   Overcast
9:00 PM 32.0 °F 20.1 °F 23.0 °F 69% 29.83 in 15.0 mi West 19.6 mph 26.5 mph N/A   Overcast
10:00 PM 30.2 °F 19.8 °F 21.2 °F 69% 29.86 in 15.0 mi WSW 13.8 mph 21.9 mph N/A   Mostly Cloudy
11:00 PM 30.2 °F 19.8 °F 21.2 °F 69% 29.89 in 15.0 mi WSW 13.8 mph - N/A   Overcast